Date String (YYYY-MM-DD hh:mm:ss) UTC,Instrument flags,Ambient pressure (hPa),Sample flow (lpm),Bypass flow (lpm),Sample temperature (°C),Ambient temperature (°C),ASC tube jacket temperature (°C),LED temperature (°C),Box temperature (°C),Sample RH (%),Span deviation,Mass concentration (μg/m³),Mass concentration (μg/m³),Mass concentration (μg/m³)
DateTimeUTC,F1_M11,P_M11,Q1_M11,Q2_M11,T1_M11,T2_M11,T3_M11,T4_M11,T5_M11,U1_M11,ZSPAN_M11,X0_M11,X2_M11,X1_M11
2022-01-22 03:00:00,,0833.0,5.00,0.00,22.5,21.9,00.0,31.4,24.3,17.2,-000.4,0009.40,0005.77,0005.51
2022-01-22 03:01:00,,0833.0,5.00,0.00,22.5,21.8,00.0,31.4,24.3,17.2,-000.5,0009.26,0005.71,0005.47
2022-01-22 03:02:00,,0833.0,5.00,0.00,22.5,21.9,00.0,31.4,24.3,17.2,-000.4,0009.23,0005.69,0005.46
2022-01-22 03:03:00,,0833.0,5.01,0.00,22.5,21.9,00.0,31.4,24.3,17.1,-000.8,0009.46,0005.69,0005.45
2022-01-22 03:04:00,,0833.0,4.98,0.00,22.5,21.8,00.0,31.4,24.3,17.1,-001.0,0009.96,0005.71,0005.46
2022-01-22 03:05:00,,0833.0,5.02,0.00,22.5,21.8,00.0,31.4,24.3,17.0,-001.9,0009.84,0005.70,0005.46
2022-01-22 03:06:00,,0833.1,5.00,0.00,22.5,21.8,00.0,31.4,24.3,17.0,-002.4,0009.09,0005.73,0005.48
2022-01-22 03:07:00,,0833.1,5.00,0.00,22.5,21.8,00.0,31.4,24.3,16.9,-002.2,0009.11,0005.76,0005.51
2022-01-22 03:08:00,,0833.1,5.01,0.00,22.5,21.8,00.0,31.4,24.2,16.9,-002.1,0009.18,0005.81,0005.53
2022-01-22 03:09:00,,0833.1,4.99,0.00,22.5,21.8,00.0,31.4,24.2,16.9,-001.8,0009.16,0005.81,0005.53
2022-01-22 03:10:00,,0833.1,5.00,0.00,22.5,21.8,00.0,31.4,24.2,16.9,-001.5,0009.10,0005.82,0005.54
2022-01-22 03:11:00,,0833.1,5.01,0.00,22.5,21.8,00.0,31.4,24.2,16.9,-001.4,0009.05,0005.82,0005.55
2022-01-22 03:12:00,,0833.1,5.00,0.00,22.5,21.8,00.0,31.4,24.2,16.9,-001.0,0009.07,0005.84,0005.57
2022-01-22 03:13:00,,0833.1,4.99,0.00,22.4,21.8,00.0,31.4,24.2,17.0,-001.4,0009.16,0005.88,0005.59
2022-01-22 03:14:00,,0833.1,5.01,0.00,22.4,21.8,00.0,31.4,24.2,17.1,-001.3,0009.27,0005.94,0005.61
2022-01-22 03:15:00,,0833.1,4.99,0.00,22.4,21.8,00.0,31.4,24.2,17.1,-000.9,0008.88,0005.99,0005.63
2022-01-22 03:16:00,,0833.1,5.01,0.00,22.4,21.8,00.0,31.4,24.2,17.1,-001.1,0009.13,0006.03,0005.65
2022-01-22 03:17:00,,0833.1,4.98,0.00,22.4,21.8,00.0,31.4,24.2,17.0,-001.1,0009.44,0006.04,0005.64
2022-01-22 03:18:00,,0833.1,5.01,0.00,22.4,21.8,00.0,31.4,24.2,17.0,-000.9,0009.48,0006.03,0005.64
2022-01-22 03:19:00,,0833.1,4.99,0.00,22.4,21.7,00.0,31.4,24.2,17.0,-001.2,0009.48,0006.00,0005.63
2022-01-22 03:20:00,,0833.1,5.01,0.00,22.4,21.7,00.0,31.4,24.1,17.1,-001.8,0009.60,0006.00,0005.65
2022-01-22 03:21:00,,0833.1,4.99,0.00,22.4,21.7,00.0,31.3,24.1,17.1,-001.9,0009.56,0005.98,0005.66
2022-01-22 03:22:00,,0833.1,5.01,0.00,22.4,21.7,00.0,31.3,24.1,17.1,-002.0,0009.61,0006.01,0005.68
2022-01-22 03:23:00,,0833.1,4.99,0.00,22.4,21.7,00.0,31.3,24.1,16.9,-002.4,0009.62,0006.00,0005.68
2022-01-22 03:24:00,,0833.1,5.01,0.00,22.4,21.7,00.0,31.3,24.1,16.8,-002.3,0009.57,0005.96,0005.64
2022-01-22 03:25:00,,0833.1,4.98,0.00,22.3,21.7,00.0,31.3,24.1,16.9,-002.3,0009.31,0005.86,0005.61
2022-01-22 03:26:00,,0833.1,5.02,0.00,22.3,21.7,00.0,31.3,24.1,16.9,-002.3,0009.11,0005.80,0005.57
2022-01-22 03:27:00,,0833.1,4.98,0.00,22.3,21.7,00.0,31.3,24.1,16.9,-002.3,0008.90,0005.78,0005.54
2022-01-22 03:28:00,,0833.1,5.01,0.00,22.3,21.6,00.0,31.3,24.1,16.9,-002.6,0008.69,0005.77,0005.54
2022-01-22 03:29:00,,0833.2,4.99,0.00,22.3,21.6,00.0,31.3,24.0,17.0,-003.0,0008.93,0005.79,0005.54
2022-01-22 03:30:00,,0833.1,4.99,0.00,22.3,21.6,00.0,31.3,24.0,17.0,-003.1,0009.59,0005.78,0005.54
2022-01-22 03:31:00,,0833.1,5.01,0.00,22.3,21.6,00.0,31.3,24.0,17.2,-002.7,0010.78,0005.82,0005.56
2022-01-22 03:32:00,,0833.2,4.98,0.00,22.3,21.6,00.0,31.3,24.0,17.1,-002.8,0010.98,0005.85,0005.58
2022-01-22 03:33:00,,0833.3,5.00,0.00,22.2,21.6,00.0,31.3,24.0,17.3,-002.6,0012.02,0005.88,0005.60
2022-01-22 03:34:00,,0833.3,5.00,0.00,22.2,21.6,00.0,31.3,24.0,17.3,-002.3,0012.33,0005.96,0005.67
2022-01-22 03:35:00,,0833.4,5.01,0.00,22.2,21.6,00.0,31.2,24.0,17.3,-002.0,0012.40,0006.03,0005.72
2022-01-22 03:36:00,,0833.5,5.00,0.00,22.3,21.7,00.0,31.3,24.0,17.2,-001.6,0012.52,0006.06,0005.74
2022-01-22 03:37:00,,0833.4,5.00,0.00,22.3,22.4,00.0,31.3,24.2,17.2,-002.0,0012.55,0006.10,0005.80
2022-01-22 03:38:00,,0833.4,5.00,0.00,22.5,23.0,00.0,31.3,24.4,17.1,-002.0,0012.58,0006.13,0005.85
2022-01-22 03:39:00,,0833.5,5.00,0.00,22.5,23.0,00.0,31.3,24.5,17.0,-001.6,0012.62,0006.16,0005.86
2022-01-22 03:40:00,,0833.4,5.00,0.00,22.6,22.8,00.0,31.4,24.5,16.9,-001.3,0012.36,0006.16,0005.88
2022-01-22 03:41:00,,0833.5,4.99,0.00,22.6,22.6,00.0,31.4,24.5,16.8,-001.0,0011.96,0006.17,0005.88
2022-01-22 03:42:00,,0833.4,5.00,0.00,22.6,22.5,00.0,31.4,24.4,16.9,-001.1,0010.83,0006.17,0005.89
2022-01-22 03:43:00,,0833.4,4.99,0.00,22.6,22.4,00.0,31.4,24.4,16.9,-000.8,0010.60,0006.19,0005.89
2022-01-22 03:44:00,,0833.4,5.00,0.00,22.5,22.3,00.0,31.4,24.3,16.9,-000.3,0010.14,0006.18,0005.89
2022-01-22 03:45:00,,0833.4,5.02,0.00,22.5,22.2,00.0,31.4,24.3,16.9,-000.2,0010.13,0006.17,0005.86
2022-01-22 03:46:00,,0833.4,4.99,0.00,22.5,22.1,00.0,31.4,24.3,16.9,-000.2,0010.11,0006.17,0005.88
2022-01-22 03:47:00,,0833.4,5.00,0.00,22.5,22.1,00.0,31.4,24.3,16.9,-000.7,0010.15,0006.23,0005.91
2022-01-22 03:48:00,,0833.4,5.02,0.00,22.5,22.0,00.0,31.4,24.3,16.9,-000.6,0010.19,0006.27,0005.94
2022-01-22 03:49:00,,0833.3,4.98,0.00,22.5,22.0,00.0,31.4,24.3,16.9,-000.4,0010.24,0006.32,0006.00
2022-01-22 03:50:00,,0833.3,5.02,0.00,22.5,22.0,00.0,31.4,24.3,16.9,-000.7,0010.23,0006.36,0006.04
2022-01-22 03:51:00,,0833.3,5.00,0.00,22.5,21.9,00.0,31.4,24.2,16.9,-000.9,0010.36,0006.44,0006.11
2022-01-22 03:52:00,,0833.2,5.00,0.00,22.5,21.9,00.0,31.4,24.2,16.8,-001.1,0010.24,0006.53,0006.19
2022-01-22 03:53:00,,0833.2,4.99,0.00,22.4,21.9,00.0,31.4,24.2,16.8,-001.1,0010.26,0006.54,0006.20
2022-01-22 03:54:00,,0833.2,5.00,0.00,22.4,21.9,00.0,31.4,24.2,16.7,-001.2,0010.18,0006.51,0006.19
2022-01-22 03:55:00,,0833.2,5.01,0.00,22.4,21.8,00.0,31.4,24.2,16.7,-001.5,0010.31,0006.50,0006.18
2022-01-22 03:56:00,,0833.2,4.99,0.00,22.4,21.8,00.0,31.4,24.2,16.7,-001.5,0010.35,0006.49,0006.20
2022-01-22 03:57:00,,0833.2,5.03,0.00,22.4,21.8,00.0,31.4,24.2,16.8,-001.4,0010.93,0006.53,0006.22
2022-01-22 03:58:00,,0833.2,5.00,0.00,22.4,21.8,00.0,31.4,24.2,16.7,-001.2,0011.34,0006.48,0006.19
2022-01-22 03:59:00,,0833.2,5.00,0.00,22.4,21.8,00.0,31.4,24.2,16.6,-001.0,0011.65,0006.43,0006.14
